Vertical_Velocity
7 9 -8 -2 2 -1 3 0 1 16 24 -1 -1 -0 1 1 3 1 3 1 5 6 5 -2 2 4 5 3 2 3 6 6 -0 7 9 2 0 3 7 8 4 2 1 2
14 -2 1 -15 -0 6 6 4 1 4 1 0 0 -0 -1 0 3 3 -1 2 3 1 5 5 -1 0 1 2 3 5 4 1 2 3 3 4 1 1 5 5 1 1 3 -0
-0 -2 1 -11 -1 1 2 3 1 2 -2 -1 3 -1 1 -2 -3 1 0 1 2 2 2 3 4 3 1 1 2 0 -1 -0 0 2 1 -1 4 1 1 -2 1 3 1 1
2 7 0 -4 -3 -3 -3 1 -1 4 1 -1 -2 8 2 -8 1 -5 -5 1 -1 2 4 3 2 3 3 2 4 1 2 1 2 2 0 2 3 3 3 5 5 5 3 3
5 -2 -1 6 -9 -1 -0 -4 -4 2 -3 -0 -3 -0 -7 2 4 -0 -1 -5 -1 -5 -4 -2 -0 -1 -1 2 2 1 1 2 2 2 0 2 2 1 2 1 1 3 5 3
0 -1 2 5 4 -5 1 4 4 0 -1 -6 -8 -6 -2 -5 -3 -1 -3 -1 1 1 -5 -1 -3 -3 -1 1 -1 4 4 4 2 0 3 3 2 3 3 4 4 3 0 -0
-2 2 2 1 3 3 6 -6 3 2 1 -2 -4 -4 -5 -1 1 -4 1 5 4 5 2 2 0 -1 -2 -1 3 1 3 2 1 3 2 3 6 8 4 2 2 4 0 -4
-1 -2 3 2 1 -8 1 4 -5 1 0 3 1 -1 -4 -4 -5 -5 -7 -5 0 6 6 6 6 6 5 1 0 2 -2 -0 0 -1 1 4 6 5 4 4 2 -0 -2 1
-1 -1 -2 -3 -1 -0 0 -1 -2 -3 -1 -4 -0 1 -1 -2 -1 -3 -6 -5 -5 -2 -0 0 3 1 1 -1 -4 -3 -1 -3 2 3 3 3 4 4 1 2 2 1 2 2
-1 0 -2 -2 0 2 1 -0 -1 -3 -6 -4 -1 -1 -0 1 -0 -2 -2 -1 -1 -4 -5 -1 -1 1 7 0 -0 -6 -3 5 3 1 1 -0 -1 0 2 0 2 6 5 7
-0 -2 1 -0 -2 -4 -0 0 0 -1 -2 -1 -3 -3 -3 -1 -2 -0 -1 1 -0 -2 -2 -1 -3 -0 -0 -0 -3 -4 6 2 2 -1 -0 -3 0 2 -0 7 15 19 13 8
1 -2 -2 -1 -1 -0 1 1 1 1 8 3 -3 0 -2 0 -2 -8 1 2 2 2 1 1 2 1 2 5 5 4 5 1 -0 3 3 4 3 9 14 13 11 4 2 0
2 3 -1 -2 -6 -3 -2 -5 -1 -2 -3 -3 0 0 1 0 -2 -1 1 2 1 -0 1 3 2 5 6 7 5 4 6 5 7 6 6 10 10 8 5 1 3 7 4 0
1 4 7 1 -1 -2 -2 -2 -1 -3 -5 -4 -1 -1 -0 2 5 2 3 -0 -1 1 -1 1 1 1 4 6 6 7 6 7 7 10 8 7 9 10 6 6 7 1 -1 2
-1 -1 1 0 2 1 -2 -2 -4 -2 -1 0 -0 -0 0 1 1 2 -0 1 2 -1 6 2 3 4 3 3 3 5 6 3 2 5 7 -2 5 3 0 2 5 2 -3 3
-1 -1 -1 1 -0 1 1 -1 -2 -2 -2 -3 -2 1 0 -0 1 -0 -0 0 2 -0 6 0 -1 5 4 3 4 5 5 5 4 -2 -1 10 5 7 4 3 -0 2 3 2
0 2 3 3 3 2 2 -0 -2 -2 -3 2 -0 -3 -3 -1 -1 -0 2 2 5 7 2 2 3 2 5 3 2 3 2 -1 5 7 11 4 0 1 2 8 -0 1 4 1
-1 -1 -0 -1 1 4 5 3 2 1 -4 -5 -2 -2 1 0 1 4 0 3 6 4 4 3 0 3 5 -1 -6 3 -1 6 6 4 3 -0 -3 1 6 5 -1 1 1 -1
1 -1 -2 0 -0 -0 2 3 2 2 2 1 2 -0 -1 1 0 1 1 0 3 1 2 2 3 4 1 2 -4 2 1 5 6 6 5 2 1 3 3 2 1 3 2 2
-0 -0 -0 -1 0 -1 -1 2 4 2 1 -0 -2 2 3 2 2 1 -1 2 -0 1 1 3 1 -0 3 3 -1 1 4 3 2 5 5 1 2 0 2 1 -1 4 1 0
-0 0 0 1 0 0 0 -1 1 3 2 1 1 -1 -1 -1 -2 -1 -1 1 0 0 0 2 1 1 3 -4 3 -4 0 2 -2 -2 1 -0 1 1 3 2 -1 -1 -2 7
1 1 0 -1 -0 -0 -1 0 -1 -1 0 2 2 2 -0 0 1 0 -1 1 2 1 -1 0 3 0 -2 1 1 -2 4 3 -1 -2 -1 -1 1 0 -4 0 7 6 -3 5
1 0 0 0 0 -1 -1 0 1 -0 -2 -2 1 2 2 -0 -1 -2 0 0 1 -0 -2 0 2 5 5 3 3 5 3 -1 -1 -1 5 3 2 3 3 4 -2 2 0 -1
1 2 1 1 1 1 1 -0 0 1 -0 -2 -0 2 4 6 5 4 3 2 1 -0 -2 -1 1 2 1 3 3 3 2 -3 -0 2 4 4 5 1 2 3 -1 0 -1 -0
0 0 0 0 1 -0 -0 1 -1 -0 0 -0 -0 0 2 1 0 1 0 -2 -2 -2 -1 -2 -2 -1 -2 -1 1 0 3 3 5 2 3 8 4 4 4 1 -2 2 1 -3
1 1 0 -0 0 1 -0 -1 -1 1 -2 -2 -1 -1 -1 -1 -1 -1 -1 -1 0 1 3 4 4 4 3 1 1 1 2 2 2 4 0 6 3 1 2 1 1 -1 -0 -7
1 0 0 0 1 1 0 0 -1 -1 -0 -1 -1 -1 -0 -1 -1 -1 -1 -0 0 -0 1 -1 -1 -1 -0 1 2 1 1 1 2 2 -2 0 -2 -3 1 1 8 -2 -4 -4
Height
2880 2884 2881 2876 2877 2877 2878 2882 2887 2890 2891 2892 2896 2898 2900 2902 2904 2907 2909 2910 2912 2913 2916 2919 2921 2925 2930 2934 2939 2943 2948 2953 2956 2961 2965 2969 2974 2981 2990 2996 3001 3007 3011 3016
2882 2881 2883 2883 2881 2879 2878 2879 2884 2885 2887 2889 2892 2892 2897 2897 2900 2903 2905 2907 2909 2910 2912 2914 2917 2919 2923 2926 2930 2934 2939 2943 2948 2951 2956 2960 2965 2971 2978 2983 2988 2995 3000 3008
2887 2884 2881 2878 2888 2890 2889 2887 2885 2887 2889 2887 2888 2889 2891 2894 2896 2899 2902 2904 2906 2907 2908 2909 2912 2914 2917 2920 2923 2925 2929 2934 2938 2943 2947 2951 2957 2962 2967 2972 2978 2986 2993 3001
2887 2887 2891 2901 2896 2894 2892 2892 2893 2891 2888 2885 2884 2885 2885 2884 2891 2894 2897 2900 2903 2903 2905 2905 2906 2909 2911 2914 2917 2918 2921 2925 2930 2935 2939 2943 2948 2952 2957 2963 2971 2978 2987 2993
2887 2891 2901 2902 2898 2895 2895 2896 2893 2889 2887 2884 2882 2883 2883 2884 2882 2883 2889 2892 2895 2900 2902 2902 2903 2904 2905 2907 2910 2912 2915 2918 2922 2927 2931 2935 2940 2944 2949 2956 2963 2971 2979 2984
2889 2890 2895 2902 2898 2894 2894 2894 2891 2889 2887 2885 2882 2881 2880 2879 2878 2879 2878 2885 2888 2890 2894 2896 2898 2899 2900 2901 2902 2905 2908 2912 2915 2918 2922 2927 2931 2937 2943 2950 2959 2965 2971 2977
2895 2894 2898 2898 2896 2894 2896 2897 2889 2887 2884 2883 2882 2880 2876 2873 2872 2872 2874 2876 2879 2882 2885 2887 2889 2891 2893 2894 2896 2899 2902 2904 2908 2911 2916 2919 2925 2932 2938 2945 2952 2958 2964 2969
2901 2900 2901 2899 2897 2898 2897 2892 2887 2884 2881 2879 2878 2877 2874 2870 2867 2865 2866 2868 2872 2874 2877 2880 2882 2883 2886 2888 2891 2894 2897 2900 2902 2905 2909 2914 2920 2926 2932 2938 2945 2951 2957 2962
2908 2906 2902 2898 2896 2894 2890 2886 2883 2880 2878 2875 2874 2872 2870 2868 2865 2861 2859 2860 2861 2864 2869 2872 2875 2877 2880 2882 2886 2889 2891 2893 2895 2899 2903 2909 2914 2920 2926 2933 2938 2944 2949 2953
2906 2903 2901 2898 2896 2893 2889 2885 2880 2877 2873 2871 2869 2868 2866 2865 2862 2859 2855 2854 2854 2856 2860 2863 2867 2870 2873 2875 2879 2883 2885 2887 2890 2894 2898 2903 2909 2915 2922 2927 2933 2937 2941 2945
2903 2901 2899 2896 2893 2890 2887 2882 2878 2874 2868 2865 2864 2863 2861 2860 2859 2856 2852 2849 2847 2847 2849 2852 2856 2859 2864 2866 2870 2874 2879 2882 2885 2887 2893 2898 2904 2910 2916 2923 2928 2931 2935 2940
2901 2898 2896 2894 2890 2887 2882 2877 2873 2868 2865 2861 2858 2857 2856 2855 2853 2852 2849 2845 2842 2841 2842 2843 2846 2849 2853 2857 2861 2866 2872 2876 2878 2882 2886 2891 2897 2904 2909 2915 2920 2924 2929 2934
2897 2895 2893 2890 2887 2884 2879 2874 2869 2864 2859 2856 2854 2851 2850 2850 2848 2847 2846 2843 2839 2837 2836 2837 2838 2840 2842 2846 2851 2856 2862 2867 2871 2875 2880 2885 2889 2894 2900 2905 2911 2918 2924 2928
2895 2893 2892 2887 2884 2881 2877 2872 2867 2862 2857 2852 2849 2847 2845 2845 2845 2843 2841 2840 2838 2835 2833 2834 2834 2835 2836 2839 2842 2847 2851 2856 2861 2867 2872 2878 2884 2890 2898 2905 2909 2913 2918 2921
2892 2890 2888 2886 2883 2878 2874 2871 2866 2861 2857 2852 2847 2844 2843 2842 2841 2840 2839 2837 2836 2834 2833 2833 2834 2833 2834 2836 2838 2841 2845 2850 2854 2861 2868 2876 2883 2888 2895 2901 2905 2909 2912 2915
2890 2888 2886 2884 2881 2879 2875 2871 2867 2861 2855 2851 2846 2842 2840 2838 2838 2837 2837 2837 2836 2834 2833 2833 2834 2833 2832 2834 2837 2839 2842 2847 2853 2859 2866 2872 2879 2885 2891 2895 2899 2903 2907 2909
2889 2887 2885 2884 2881 2878 2874 2869 2865 2861 2856 2851 2847 2842 2840 2838 2837 2837 2836 2836 2836 2835 2834 2834 2835 2835 2836 2835 2837 2840 2844 2850 2856 2861 2866 2871 2877 2883 2888 2890 2895 2901 2902 2905
2886 2885 2883 2881 2878 2876 2873 2869 2865 2861 2857 2853 2849 2845 2843 2840 2839 2837 2836 2836 2836 2836 2836 2836 2836 2838 2838 2840 2842 2845 2849 2853 2857 2861 2865 2870 2876 2881 2885 2888 2893 2897 2898 2901
2883 2882 2881 2879 2877 2874 2871 2868 2864 2860 2857 2854 2851 2848 2845 2843 2841 2839 2837 2837 2836 2836 2837 2838 2839 2839 2841 2843 2846 2848 2851 2855 2858 2861 2864 2869 2874 2879 2883 2887 2891 2894 2896 2899
2881 2879 2877 2876 2874 2872 2870 2867 2864 2860 2857 2854 2852 2849 2847 2845 2843 2841 2840 2839 2838 2838 2838 2838 2840 2842 2843 2845 2848 2850 2853 2855 2859 2862 2866 2870 2874 2878 2882 2885 2889 2891 2894 2897
2879 2877 2875 2873 2871 2870 2867 2865 2863 2861 2857 2854 2852 2850 2848 2846 2845 2844 2843 2842 2841 2841 2840 2840 2841 2843 2844 2847 2850 2851 2855 2856 2859 2863 2866 2870 2874 2878 2881 2884 2887 2890 2893 2894
2875 2874 2872 2871 2869 2867 2865 2863 2861 2860 2858 2855 2852 2850 2849 2848 2847 2846 2845 2844 2844 2843 2843 2843 2843 2844 2846 2849 2851 2854 2856 2858 2861 2865 2868 2871 2874 2877 2880 2884 2886 2886 2889 2891
2872 2870 2869 2868 2866 2864 2863 2861 2859 2858 2857 2855 2853 2851 2850 2849 2848 2847 2846 2846 2845 2845 2846 2846 2846 2847 2848 2850 2852 2854 2856 2859 2863 2867 2870 2873 2876 2878 2881 2882 2884 2884 2886 2887
2869 2867 2865 2864 2863 2861 2859 2858 2857 2856 2855 2854 2853 2851 2850 2849 2848 2847 2846 2846 2845 2846 2847 2848 2848 2849 2850 2852 2854 2856 2858 2861 2865 2867 2869 2871 2874 2876 2879 2879 2881 2881 2882 2883
2865 2864 2862 2860 2859 2858 2857 2855 2854 2853 2853 2852 2851 2850 2848 2847 2847 2846 2846 2846 2846 2847 2848 2849 2850 2850 2852 2853 2855 2857 2860 2862 2865 2866 2868 2869 2871 2873 2875 2876 2878 2878 2878 2879
2862 2860 2859 2857 2856 2854 2854 2853 2852 2850 2850 2849 2849 2848 2847 2847 2846 2846 2846 2847 2847 2847 2848 2848 2848 2849 2851 2853 2855 2857 2859 2861 2864 2865 2868 2868 2869 2870 2872 2873 2873 2873 2873 2876
2858 2856 2854 2853 2852 2850 2849 2849 2848 2848 2847 2846 2846 2846 2845 2845 2845 2845 2845 2845 2846 2846 2846 2847 2848 2849 2850 2852 2854 2855 2858 2859 2862 2862 2865 2866 2867 2868 2869 2869 2869 2869 2871 2872